EW5545 Weather Reports


Display with metric or nautical units.
time (UTC)temp
F
wind
direction
speed
MPH
gust
MPH
rain 1hr
in
rain 24hr
in
rain mn
in
humidity
%
barometer
mb
20260504151007 73 37 3.0 8.0 0.00 0.00 0.00 35 1016.4
20260504150507 74 47 3.0 10.0 0.00 0.00 0.00 35 1016.4
20260504140507 74 46 4.0 12.0 0.00 0.00 0.00 38 1016.6
20260504130507 75 45 4.0 10.0 0.00 0.00 0.00 42 1017.0
20260504110507 75 37 5.0 12.0 0.00 0.00 0.00 36 1017.6
20260504100513 74 9 3.0 7.0 0.00 0.00 0.00 36 1018.1
20260504082007 70 10 1.0 6.0 0.00 0.00 0.00 45 1018.5
20260504081505 70 31 2.0 6.0 0.00 0.00 0.00 45 1018.5
20260504081007 69 227 0.0 3.0 0.00 0.00 0.00 47 1018.5
20260504080507 69 44 3.0 6.0 0.00 0.00 0.00 46 1018.6
20260504050507 56 233 0.0 0.0 0.00 0.00 0.00 72 1017.6
20260504050006 55 233 0.0 1.0 0.00 0.00 0.00 73 1017.6
20260504045507 54 233 1.0 2.0 0.00 0.00 0.00 73 1017.6
20260504045006 54 233 0.0 1.0 0.00 0.00 0.00 73 1017.6
20260504044505 53 233 1.0 2.0 0.00 0.00 0.00 74 1017.6
20260504044007 52 233 1.0 1.0 0.00 0.00 0.00 75 1017.5
20260504043511 52 233 0.0 1.0 0.00 0.00 0.00 75 1017.5
20260504042507 52 233 0.0 0.0 0.00 0.00 0.00 76 1017.5
20260504042007 52 233 0.0 0.0 0.00 0.00 0.00 76 1017.5
20260504041507 51 233 0.0 0.0 0.00 0.00 0.00 76 1017.4
20260504041006 52 233 0.0 0.0 0.00 0.00 0.00 76 1017.4
20260504040507 52 233 0.0 1.0 0.00 0.00 0.00 75 1017.4
20260504040008 52 233 0.0 1.0 0.00 0.00 0.00 75 1017.3
20260504035507 52 233 0.0 1.0 0.00 0.00 0.00 75 1017.4
20260504035008 52 233 0.0 0.0 0.00 0.00 0.00 75 1017.3
20260504034006 52 233 0.0 1.0 0.00 0.00 0.00 75 1017.3
20260504033517 52 233 0.0 1.0 0.00 0.00 0.00 75 1017.3
20260504033008 52 233 0.0 1.0 0.00 0.00 0.00 75 1017.2
20260504032007 51 233 0.0 1.0 0.00 0.00 0.00 76 1017.2
20260504030507 51 233 0.0 1.0 0.00 0.00 0.00 75 1017.2
20260504030007 51 233 0.0 1.0 0.00 0.00 0.00 76 1017.2
20260504025506 51 233 0.0 1.0 0.00 0.00 0.00 76 1017.2
20260504025007 51 233 0.0 1.0 0.00 0.00 0.00 75 1017.2
20260504024507 51 233 1.0 2.0 0.00 0.00 0.00 74 1017.2
20260504024008 51 233 1.0 2.0 0.00 0.00 0.00 75 1017.2
20260504023506 50 233 1.0 2.0 0.00 0.00 0.00 74 1017.3
20260504023006 51 233 2.0 2.0 0.00 0.00 0.00 74 1017.3
20260504022506 51 233 2.0 2.0 0.00 0.00 0.00 73 1017.3
20260504022006 52 233 2.0 3.0 0.00 0.00 0.00 72 1017.3
20260504021007 52 233 1.0 2.0 0.00 0.00 0.00 72 1017.3
20260504020505 51 233 1.0 1.0 0.00 0.00 0.00 72 1017.3
20260504020012 51 233 1.0 1.0 0.00 0.00 0.00 72 1017.3
20260504015507 52 233 1.0 1.0 0.00 0.00 0.00 72 1017.3
20260504015008 52 233 1.0 1.0 0.00 0.00 0.00 72 1017.3
20260504014507 51 233 1.0 1.0 0.00 0.00 0.00 73 1017.3
20260504014006 51 233 1.0 1.0 0.00 0.00 0.00 73 1017.3
20260504013505 52 233 1.0 1.0 0.00 0.00 0.00 72 1017.3
20260504013005 52 233 1.0 1.0 0.00 0.00 0.00 72 1017.3
20260504012506 52 233 1.0 2.0 0.00 0.00 0.00 73 1017.3
20260504012005 52 233 1.0 2.0 0.00 0.00 0.00 73 1017.3
20260504010506 51 233 1.0 3.0 0.00 0.00 0.00 76 1017.4
20260504005506 50 233 2.0 3.0 0.00 0.00 0.00 76 1017.4
20260504005005 50 233 2.0 3.0 0.00 0.00 0.00 76 1017.4
20260504004507 50 233 2.0 3.0 0.00 0.00 0.00 76 1017.4
20260504004010 51 232 1.0 3.0 0.00 0.00 0.00 76 1017.3
20260504003507 50 233 1.0 1.0 0.00 0.00 0.00 76 1017.3
20260504003005 50 233 1.0 2.0 0.00 0.00 0.00 77 1017.3
20260504002507 50 233 1.0 2.0 0.00 0.00 0.00 76 1017.3
20260504002007 50 232 1.0 2.0 0.00 0.00 0.00 77 1017.3
20260504001510 50 232 1.0 2.0 0.00 0.00 0.00 76 1017.4
20260504001011 50 232 1.0 2.0 0.00 0.00 0.00 77 1017.4
20260504000507 50 232 1.0 2.0 0.00 0.00 0.00 77 1017.4
20260504000010 50 232 1.0 2.0 0.00 0.00 0.00 76 1017.4
20260503235505 51 232 2.0 3.0 0.00 0.00 0.00 74 1017.4
20260503235007 51 232 1.0 2.0 0.00 0.00 0.00 75 1017.4
20260503234005 52 230 1.0 2.0 0.00 0.00 0.00 75 1017.5
20260503233510 52 230 1.0 2.0 0.00 0.00 0.00 75 1017.5
20260503232505 52 230 1.0 3.0 0.00 0.00 0.00 73 1017.6
20260503231506 53 226 1.0 2.0 0.00 0.00 0.00 72 1017.6
20260503231008 53 226 1.0 2.0 0.00 0.00 0.00 72 1017.6
20260503230505 54 226 1.0 2.0 0.00 0.00 0.00 70 1017.6
20260503230006 54 226 1.0 1.0 0.00 0.00 0.00 70 1017.6
20260503225508 54 226 0.0 1.0 0.00 0.00 0.00 69 1017.6
20260503225006 54 226 0.0 1.0 0.00 0.00 0.00 70 1017.6
20260503224506 53 226 1.0 2.0 0.00 0.00 0.00 70 1017.6
20260503224010 53 226 1.0 2.0 0.00 0.00 0.00 70 1017.6
20260503223507 53 226 1.0 3.0 0.00 0.00 0.00 70 1017.6
20260503223011 53 222 0.0 1.0 0.00 0.00 0.00 70 1017.6
20260503222507 53 222 0.0 0.0 0.00 0.00 0.00 70 1017.6
20260503221506 54 222 0.0 0.0 0.00 0.00 0.00 68 1017.6
20260503221006 54 222 0.0 0.0 0.00 0.00 0.00 67 1017.6
20260503220505 54 222 0.0 0.0 0.00 0.00 0.00 68 1017.6
20260503220009 54 222 0.0 1.0 0.00 0.00 0.00 66 1017.6
20260503215511 55 222 0.0 0.0 0.00 0.00 0.00 66 1017.6
20260503215006 56 222 0.0 0.0 0.00 0.00 0.00 65 1017.5
20260503214506 56 222 0.0 0.0 0.00 0.00 0.00 64 1017.5
20260503214007 57 222 0.0 0.0 0.00 0.00 0.00 64 1017.5
20260503213516 57 222 0.0 2.0 0.00 0.00 0.00 64 1017.5
20260503213005 57 221 1.0 3.0 0.00 0.00 0.00 64 1017.4
20260503212506 56 215 1.0 2.0 0.00 0.00 0.00 63 1017.4
20260503211507 55 203 0.0 1.0 0.00 0.00 0.00 63 1017.4
20260503211007 55 202 1.0 2.0 0.00 0.00 0.00 63 1017.4
20260503210006 54 201 0.0 1.0 0.00 0.00 0.00 63 1017.3
20260503205005 54 201 0.0 1.0 0.00 0.00 0.00 65 1017.4
20260503204510 53 201 0.0 1.0 0.00 0.00 0.00 66 1017.3
20260503204006 53 201 0.0 3.0 0.00 0.00 0.00 67 1017.4
20260503203005 54 147 0.0 2.0 0.00 0.00 0.00 65 1017.3
20260503202507 54 235 0.0 2.0 0.00 0.00 0.00 64 1017.3
20260503202005 54 235 1.0 2.0 0.00 0.00 0.00 63 1017.2
20260503201006 54 237 1.0 2.0 0.00 0.00 0.00 63 1017.2
20260503200506 54 237 1.0 2.0 0.00 0.00 0.00 64 1017.2
20260503200005 54 237 1.0 2.0 0.00 0.00 0.00 65 1017.1
20260503195506 54 237 1.0 2.0 0.00 0.00 0.00 66 1017.1
20260503194507 54 237 1.0 2.0 0.00 0.00 0.00 69 1017.0
20260503193507 54 235 2.0 2.0 0.00 0.00 0.00 68 1017.0
20260503193011 55 235 2.0 3.0 0.00 0.00 0.00 68 1017.0
20260503192506 55 235 2.0 2.0 0.00 0.00 0.00 67 1016.9
20260503192007 56 238 2.0 2.0 0.00 0.00 0.00 66 1016.9
20260503191505 56 234 2.0 2.0 0.00 0.00 0.00 65 1016.8
20260503190007 57 235 1.0 2.0 0.00 0.00 0.00 64 1016.7
20260503185005 58 237 2.0 2.0 0.00 0.00 0.00 62 1016.7
20260503184505 58 236 1.0 2.0 0.00 0.00 0.00 61 1016.7
20260503184007 59 231 2.0 2.0 0.00 0.00 0.00 59 1016.6
20260503183506 60 230 0.0 1.0 0.00 0.00 0.00 57 1016.6
20260503182507 60 230 1.0 3.0 0.00 0.00 0.00 56 1016.6
20260503182007 62 246 1.0 3.0 0.00 0.00 0.00 51 1016.6
20260503181510 63 263 0.0 0.0 0.00 0.00 0.00 48 1016.5
20260503180510 64 334 0.0 0.0 0.00 0.00 0.00 46 1016.5
20260503175505 64 333 0.0 0.0 0.00 0.00 0.00 44 1016.5
20260503175007 65 14 0.0 1.0 0.00 0.00 0.00 44 1016.5
20260503174005 65 243 0.0 1.0 0.00 0.00 0.00 43 1016.6
20260503173005 66 31 0.0 1.0 0.00 0.00 0.00 41 1016.5
20260503172008 67 31 1.0 3.0 0.00 0.00 0.00 39 1016.5
20260503171505 68 38 0.0 1.0 0.00 0.00 0.00 38 1016.5
20260503171007 68 38 0.0 2.0 0.00 0.00 0.00 38 1016.5